Uribyol-3

operational
NORAD ID: 25756 Int'l Des: 1999-029 Owner: KAIST Country: KR
LEOCIRCULARRETROGRADESSO

About Uribyol-3

Description loading...

Live Position

Loading 3D Globe...

Upcoming Passes

Altitude History

Altitude vs Time

uPlot chart will show altitude changes over time

Two-Line Element Set

1 25756U 99029A 26061.60791233 .00000333 00000-0 87400-4 0 9992
2 25756 98.6313 93.6846 0012426 225.2606 134.7580 14.55740067419529
Epoch: Mar 2, 2026 • Age: 27 hours

Current Status

Altitude 727.0 km
Velocity 7.49 km/s
Sub-Earth Point -75.30°S, 28.4°E
Launch Date May 26, 1999
Age 26.7 years
Type other

Technical Details

Classification Payload
Mass 110.00 kg
Dry Mass 110.00 kg
Total Mass 110.00 kg
Length 0.60 m
Diameter 0.40 m
Span 0.60 m
Shape Box
Manufacturer KAIST
Bus Type SI-200
Phase Status In Orbit
Owner/State KAIST/KR

Large Constellations

Loading constellations...